Location: Unspecified
(52.4292°N, 19.3359°E)
Time: 23:07:45
(UTC+02:00)

Altair - Pass Details

Date: 22 May 2024
Orbit: 1502 x 1682 km, 47.2° (Epoch: 19 June)

Event Time Altitude Azimuth Distance (km) Brightness Sun altitude
Rises 12:14:19 0° 243° (WSW) 4,847 10.2 57.7°
Reaches altitude 10° 12:17:27 10° 240° (WSW) 3,882 9.9 57.8°
Maximum altitude 12:27:11 60° 164° (SSE) 1,878 11.0 58.0°
Drops below altitude 10° 12:37:04 10° 88° (E) 3,947 9.8 58.1°
Sets 12:40:17 0° 85° (E) 4,932 10.1 58.1°
